When you browse on this site, cookies collect data to enhance your experience and personalize the content and advertising you see.
Visit our Privacy Policy to learn more. By continuing to use the site, you agree to this use of cookies and data.
  • In Netherlands
  • List of Countries
  • For 7 days
  • Water Temperature
  • Satellite Maps
  • Weather Map
  • Weather Widgets
  • user-avatar
    Login

    Hourly Weather Puykkola

    Today, 21 February, Thursday

    Time Temperature Precipitation Wind Pressure Humidity
    00:00 -12°C° 0 mm 7 mps 743 mmHg 78%
    01:00 -13°C° 0 mm 7 mps 744 mmHg 77%
    02:00 -13°C° 0 mm 7 mps 745 mmHg 76%
    03:00 -13°C° 0 mm 7 mps 746 mmHg 77%
    04:00 -14°C° 0 mm 6 mps 748 mmHg 78%
    05:00 -14°C° 0 mm 6 mps 749 mmHg 79%
    06:00 -14°C° 0 mm 6 mps 750 mmHg 80%
    07:00 -14°C° 0 mm 5 mps 751 mmHg 82%
    08:00 -15°C° 0 mm 5 mps 752 mmHg 84%
    09:00 -14°C° 0 mm 5 mps 753 mmHg 83%
    10:00 -14°C° 0 mm 5 mps 753 mmHg 82%
    11:00 -13°C° 0 mm 5 mps 754 mmHg 81%
    12:00 -13°C° 0 mm 5 mps 755 mmHg 80%
    13:00 -12°C° 0 mm 5 mps 755 mmHg 80%
    14:00 -12°C° 0 mm 5 mps 756 mmHg 80%
    15:00 -12°C° 0 mm 4 mps 757 mmHg 82%
    16:00 -12°C° 0 mm 4 mps 757 mmHg 84%
    17:00 -14°C° 0 mm 4 mps 758 mmHg 86%
    18:00 -15°C° 0 mm 4 mps 759 mmHg 87%
    19:00 -15°C° 0 mm 4 mps 760 mmHg 88%
    20:00 -15°C° 0 mm 4 mps 761 mmHg 89%
    21:00 -16°C° 0 mm 4 mps 761 mmHg 89%
    22:00 -16°C° 0 mm 4 mps 762 mmHg 90%
    23:00 -16°C° 0 mm 3 mps 762 mmHg 91%

    Tomorrow, 22 February, Friday

    Time Temperature Precipitation Wind Pressure Humidity
    00:00 -16°C° 0 mm 3 mps 763 mmHg 90%
    01:00 -16°C° 0 mm 3 mps 764 mmHg 90%
    02:00 -16°C° 0 mm 3 mps 765 mmHg 89%
    03:00 -17°C° 0 mm 3 mps 765 mmHg 88%
    04:00 -17°C° 0 mm 3 mps 765 mmHg 86%
    05:00 -17°C° 0 mm 3 mps 766 mmHg 85%
    06:00 -17°C° 0 mm 3 mps 767 mmHg 85%
    07:00 -18°C° 0 mm 3 mps 767 mmHg 84%
    08:00 -18°C° 0 mm 3 mps 768 mmHg 84%
    09:00 -17°C° 0 mm 3 mps 768 mmHg 83%
    10:00 -16°C° 0 mm 3 mps 769 mmHg 82%
    11:00 -14°C° 0 mm 3 mps 769 mmHg 80%
    12:00 -14°C° 0 mm 3 mps 769 mmHg 81%
    13:00 -13°C° 0 mm 3 mps 769 mmHg 82%
    14:00 -12°C° 0 mm 3 mps 769 mmHg 83%
    15:00 -12°C° 0 mm 2 mps 769 mmHg 86%
    16:00 -13°C° 0 mm 2 mps 769 mmHg 88%
    17:00 -14°C° 0 mm 2 mps 769 mmHg 90%
    18:00 -15°C° 0 mm 2 mps 769 mmHg 89%
    19:00 -13°C° 0 mm 1 mps 769 mmHg 88%
    20:00 -14°C° 0 mm 1 mps 769 mmHg 87%
    21:00 -16°C° 0 mm 2 mps 768 mmHg 87%
    22:00 -16°C° 0 mm 2 mps 768 mmHg 87%
    23:00 -16°C° 0 mm 2 mps 767 mmHg 87%

    Day after tomorrow, 23 February, Saturday

    Time Temperature Precipitation Wind Pressure Humidity
    00:00 -14°C° 0 mm 2 mps 767 mmHg 83%
    01:00 -14°C° 0 mm 3 mps 766 mmHg 80%
    02:00 -13°C° 0 mm 3 mps 765 mmHg 76%
    03:00 -12°C° 0.3 mm 4 mps 764 mmHg 82%
    04:00 -11°C° 0.3 mm 4 mps 763 mmHg 87%
    05:00 -11°C° 0.3 mm 4 mps 762 mmHg 93%
    06:00 -10°C° 0.7 mm 4 mps 761 mmHg 93%
    07:00 -9°C° 0.7 mm 4 mps 760 mmHg 93%
    08:00 -8°C° 0.7 mm 4 mps 759 mmHg 94%
    09:00 -5°C° 0.2 mm 4 mps 759 mmHg 93%
    10:00 -4°C° 0.2 mm 4 mps 758 mmHg 93%
    11:00 -2°C° 0.2 mm 4 mps 758 mmHg 93%
    12:00 -2°C° 0 mm 4 mps 757 mmHg 94%
    13:00 -1°C° 0 mm 4 mps 757 mmHg 96%
    14:00 0°C° 0 mm 4 mps 757 mmHg 98%
    15:00 0°C° 0 mm 4 mps 757 mmHg 98%
    16:00 0°C° 0 mm 4 mps 757 mmHg 98%
    17:00 0°C° 0 mm 4 mps 756 mmHg 97%
    18:00 +1°C° 0 mm 3 mps 757 mmHg 97%
    19:00 +1°C° 0 mm 3 mps 757 mmHg 97%
    20:00 +1°C° 0 mm 3 mps 757 mmHg 97%
    21:00 +1°C° 0 mm 3 mps 757 mmHg 97%
    22:00 +1°C° 0 mm 3 mps 757 mmHg 97%
    23:00 +1°C° 0 mm 3 mps 757 mmHg 98%

    24 February, Sunday

    Time Temperature Precipitation Wind Pressure Humidity
    00:00 0°C° 0 mm 3 mps 757 mmHg 97%
    01:00 0°C° 0 mm 3 mps 757 mmHg 96%
    02:00 0°C° 0 mm 3 mps 758 mmHg 96%
    03:00 0°C° 0 mm 3 mps 758 mmHg 96%
    04:00 -1°C° 0 mm 3 mps 758 mmHg 97%
    05:00 -1°C° 0 mm 3 mps 758 mmHg 97%
    06:00 -1°C° 0 mm 2 mps 758 mmHg 97%
    07:00 -1°C° 0 mm 2 mps 758 mmHg 97%
    08:00 -1°C° 0 mm 2 mps 758 mmHg 97%
    09:00 -1°C° 0 mm 2 mps 758 mmHg 98%
    10:00 -1°C° 0 mm 2 mps 757 mmHg 98%
    11:00 +1°C° 0 mm 2 mps 757 mmHg 99%
    12:00 +1°C° 0.1 mm 2 mps 756 mmHg 99%
    13:00 +1°C° 0.1 mm 2 mps 756 mmHg 99%
    14:00 +1°C° 0.1 mm 2 mps 756 mmHg 99%
    15:00 0°C° 0.1 mm 3 mps 755 mmHg 98%
    16:00 +1°C° 0.1 mm 3 mps 754 mmHg 98%
    17:00 +1°C° 0.1 mm 3 mps 754 mmHg 97%
    18:00 0°C° 0 mm 4 mps 753 mmHg 96%
    19:00 +1°C° 0 mm 4 mps 753 mmHg 95%
    20:00 +1°C° 0 mm 5 mps 753 mmHg 95%
    21:00 +1°C° 0 mm 5 mps 753 mmHg 91%
    22:00 +1°C° 0 mm 6 mps 753 mmHg 87%
    23:00 -1°C° 0 mm 6 mps 753 mmHg 83%

    25 February, Monday

    Time Temperature Precipitation Wind Pressure Humidity
    00:00 -1°C° 0 mm 6 mps 753 mmHg 82%
    01:00 -2°C° 0 mm 6 mps 753 mmHg 80%
    02:00 -2°C° 0 mm 6 mps 754 mmHg 79%
    03:00 -3°C° 0 mm 6 mps 753 mmHg 79%
    04:00 -3°C° 0 mm 6 mps 753 mmHg 79%
    05:00 -4°C° 0 mm 5 mps 753 mmHg 79%
    06:00 -4°C° 0 mm 5 mps 753 mmHg 79%
    07:00 -4°C° 0 mm 5 mps 752 mmHg 78%
    08:00 -4°C° 0 mm 5 mps 752 mmHg 78%
    09:00 -3°C° 0 mm 6 mps 752 mmHg 76%
    10:00 -2°C° 0 mm 6 mps 752 mmHg 75%
    11:00 -1°C° 0 mm 7 mps 752 mmHg 73%
    12:00 -1°C° 0 mm 7 mps 752 mmHg 73%
    13:00 -1°C° 0 mm 7 mps 752 mmHg 73%
    14:00 -1°C° 0 mm 7 mps 752 mmHg 73%
    15:00 -1°C° 0 mm 6 mps 752 mmHg 74%
    16:00 -2°C° 0 mm 6 mps 752 mmHg 75%
    17:00 -2°C° 0 mm 5 mps 752 mmHg 77%
    18:00 -2°C° 0 mm 5 mps 753 mmHg 79%
    19:00 -3°C° 0 mm 4 mps 753 mmHg 82%
    20:00 -3°C° 0 mm 4 mps 753 mmHg 84%
    21:00 -4°C° 0 mm 4 mps 753 mmHg 86%
    22:00 -4°C° 0 mm 3 mps 753 mmHg 88%
    23:00 -5°C° 0 mm 3 mps 753 mmHg 90%

    26 February, Tuesday

    Time Temperature Precipitation Wind Pressure Humidity
    00:00 -5°C° 0 mm 3 mps 753 mmHg 92%
    01:00 -5°C° 0 mm 2 mps 752 mmHg 93%
    02:00 -5°C° 0 mm 2 mps 752 mmHg 95%
    03:00 -5°C° 0 mm 2 mps 751 mmHg 95%
    04:00 -5°C° 0 mm 2 mps 750 mmHg 95%
    05:00 -5°C° 0 mm 2 mps 750 mmHg 95%
    06:00 -3°C° 0.2 mm 1 mps 749 mmHg 96%
    07:00 -3°C° 0.2 mm 1 mps 748 mmHg 96%
    08:00 -4°C° 0.2 mm 0 mps 747 mmHg 97%
    09:00 -2°C° 0.2 mm 1 mps 747 mmHg 95%
    10:00 -1°C° 0.2 mm 1 mps 747 mmHg 93%
    11:00 -3°C° 0.2 mm 2 mps 747 mmHg 91%
    12:00 -2°C° 0 mm 2 mps 748 mmHg 89%
    13:00 -2°C° 0 mm 2 mps 749 mmHg 87%
    14:00 -1°C° 0 mm 2 mps 749 mmHg 84%
    15:00 -2°C° 0 mm 2 mps 750 mmHg 87%
    16:00 -3°C° 0 mm 2 mps 751 mmHg 90%
    17:00 -4°C° 0 mm 2 mps 751 mmHg 93%
    18:00 -4°C° 0 mm 2 mps 752 mmHg 93%
    19:00 -4°C° 0 mm 2 mps 753 mmHg 94%
    20:00 -5°C° 0 mm 2 mps 753 mmHg 95%
    21:00 -5°C° 0 mm 2 mps 753 mmHg 95%
    22:00 -4°C° 0 mm 1 mps 754 mmHg 95%
    23:00 -4°C° 0 mm 1 mps 754 mmHg 95%
    Show more